Date String (YYYY-MM-DD hh:mm:ss) UTC,Instrument flags,Ambient pressure (hPa),Sample flow (lpm),Bypass flow (lpm),Sample temperature (°C),Ambient temperature (°C),ASC tube jacket temperature (°C),LED temperature (°C),Box temperature (°C),Sample RH (%),Span deviation,Mass concentration (μg/m³),Mass concentration (μg/m³),Mass concentration (μg/m³)
DateTimeUTC,F1_M11,P_M11,Q1_M11,Q2_M11,T1_M11,T2_M11,T3_M11,T4_M11,T5_M11,U1_M11,ZSPAN_M11,X2_M11,X0_M11,X1_M11
2022-09-17 04:00:00,,0824.2,5.01,0.00,30.2,28.9,00.0,38.9,32.1,16.8,0000.0,0002.13,0002.89,0001.84
2022-09-17 04:01:00,,0824.2,4.99,0.00,30.2,28.9,00.0,38.9,32.1,16.7,0000.0,0002.12,0002.90,0001.82
2022-09-17 04:02:00,,0824.3,5.00,0.00,30.2,29.0,00.0,38.9,32.1,16.7,0000.0,0002.11,0003.08,0001.82
2022-09-17 04:03:00,,0824.3,5.00,0.00,30.3,29.0,00.0,38.9,32.1,16.8,0000.0,0002.08,0002.96,0001.82
2022-09-17 04:04:00,,0824.5,4.99,0.00,30.3,29.0,00.0,39.0,32.1,16.9,0000.0,0002.06,0002.91,0001.81
2022-09-17 04:05:00,,0824.4,5.01,0.00,30.3,29.0,00.0,39.0,32.1,16.9,0000.0,0002.05,0003.39,0001.80
2022-09-17 04:06:00,,0824.4,5.00,0.00,30.3,29.0,00.0,39.0,32.1,17.0,0000.0,0002.06,0003.59,0001.78
2022-09-17 04:07:00,,0824.6,4.99,0.00,30.3,29.0,00.0,39.0,32.1,17.0,0000.0,0002.05,0003.58,0001.78
2022-09-17 04:08:00,,0824.6,5.01,0.00,30.3,29.1,00.0,39.0,32.2,17.1,0000.0,0002.04,0003.52,0001.78
2022-09-17 04:09:00,,0824.4,4.99,0.00,30.4,29.1,00.0,39.1,32.2,17.8,0000.0,0002.06,0005.15,0001.79
2022-09-17 04:10:00,,0824.5,4.99,0.00,30.4,29.1,00.0,39.1,32.2,18.4,0000.0,0002.09,0005.47,0001.81
2022-09-17 04:11:00,,0824.5,5.02,0.00,30.4,29.2,00.0,39.1,32.2,18.3,0000.0,0002.12,0005.61,0001.82
2022-09-17 04:12:00,,0824.5,4.99,0.00,30.4,28.9,00.0,39.1,32.2,18.1,0000.0,0002.14,0005.61,0001.84
2022-09-17 04:13:00,,0824.6,5.01,0.00,30.4,27.4,00.0,39.1,32.2,18.1,0000.0,0002.14,0005.51,0001.85
2022-09-17 04:14:00,,0824.4,5.00,0.00,30.4,26.8,00.0,39.0,32.1,18.1,0000.0,0002.20,0005.72,0001.87
2022-09-17 04:15:00,,0824.5,5.00,0.00,30.3,27.0,00.0,39.0,31.9,18.0,0000.0,0002.26,0005.86,0001.89
2022-09-17 04:16:00,,0824.4,5.01,0.00,30.2,27.3,00.0,38.9,31.8,18.0,0000.0,0002.26,0005.36,0001.91
2022-09-17 04:17:00,,0824.4,5.00,0.00,30.2,27.6,00.0,38.9,31.8,18.3,0000.0,0002.24,0005.10,0001.92
2022-09-17 04:18:00,,0824.5,4.99,0.00,30.1,27.9,00.0,38.9,31.8,18.5,0000.0,0002.30,0005.34,0001.95
2022-09-17 04:19:00,,0824.5,5.00,0.00,30.1,28.1,00.0,38.9,31.8,18.3,0000.0,0002.35,0006.12,0001.98
2022-09-17 04:20:00,,0824.5,5.01,0.00,30.1,28.3,00.0,38.9,31.9,17.9,0000.0,0002.35,0004.59,0001.98
2022-09-17 04:21:00,,0824.4,4.99,0.00,30.1,28.4,00.0,38.9,31.9,17.9,0000.0,0002.29,0004.16,0001.97
2022-09-17 04:22:00,,0824.6,4.99,0.00,30.1,28.5,00.0,38.9,31.9,17.4,0000.0,0002.25,0004.04,0001.95
2022-09-17 04:23:00,,0824.5,5.01,0.00,30.1,28.6,00.0,38.9,31.9,17.2,0000.0,0002.24,0004.05,0001.93
2022-09-17 04:24:00,,0824.8,5.00,0.00,30.1,28.7,00.0,38.9,32.0,17.3,0000.0,0002.24,0003.98,0001.91
2022-09-17 04:25:00,,0824.4,5.01,0.00,30.1,28.8,00.0,38.9,32.0,16.9,0000.0,0002.19,0003.79,0001.89
2022-09-17 04:26:00,,0824.6,4.99,0.00,30.2,28.8,00.0,38.9,32.0,16.9,0000.0,0002.13,0003.70,0001.85
2022-09-17 04:27:00,,0824.6,4.99,0.00,30.2,28.9,00.0,38.9,32.0,17.0,0000.0,0002.13,0003.74,0001.84
2022-09-17 04:28:00,,0824.5,5.01,0.00,30.2,28.9,00.0,38.9,32.0,16.8,0000.0,0002.12,0003.87,0001.82
2022-09-17 04:29:00,,0824.6,4.99,0.00,30.2,29.0,00.0,38.9,32.1,16.7,0000.0,0002.05,0003.67,0001.78
2022-09-17 04:30:00,,0824.4,4.99,0.00,30.2,29.0,00.0,39.0,32.1,16.5,0000.0,0002.00,0002.91,0001.73
2022-09-17 04:31:00,,0824.4,5.01,0.00,30.3,29.0,00.0,39.0,32.1,16.7,0000.0,0001.98,0002.82,0001.72
2022-09-17 04:32:00,,0824.6,5.00,0.00,30.3,29.0,00.0,39.0,32.1,16.7,0000.0,0001.95,0002.73,0001.70
2022-09-17 04:33:00,,0824.7,5.00,0.00,30.3,29.1,00.0,39.0,32.1,16.8,0000.0,0001.91,0003.51,0001.68
2022-09-17 04:34:00,,0824.5,5.01,0.00,30.3,29.1,00.0,39.0,32.2,16.5,0000.0,0001.90,0003.59,0001.67
2022-09-17 04:35:00,,0824.4,4.98,0.00,30.3,29.1,00.0,39.0,32.2,16.3,0000.0,0001.88,0003.63,0001.65
2022-09-17 04:36:00,,0824.5,5.00,0.00,30.4,29.1,00.0,39.0,32.2,16.3,0000.0,0001.85,0003.57,0001.61
2022-09-17 04:37:00,,0824.4,5.00,0.00,30.4,29.1,00.0,39.1,32.2,16.2,0000.0,0001.84,0003.53,0001.60
2022-09-17 04:38:00,,0824.4,5.00,0.00,30.4,29.1,00.0,39.1,32.2,16.2,0000.0,0001.80,0003.45,0001.57
2022-09-17 04:39:00,,0824.4,5.01,0.00,30.4,29.2,00.0,39.1,32.2,16.4,0000.0,0001.77,0003.27,0001.55
2022-09-17 04:40:00,,0824.4,4.99,0.00,30.4,29.1,00.0,39.1,32.3,16.3,0000.0,0001.78,0003.32,0001.54
2022-09-17 04:41:00,,0824.4,5.01,0.00,30.4,27.8,00.0,39.1,32.2,16.3,0000.0,0001.74,0003.27,0001.53
2022-09-17 04:42:00,,0824.5,5.00,0.00,30.4,26.9,00.0,39.0,32.1,16.4,0000.0,0001.75,0003.25,0001.52
2022-09-17 04:43:00,,0824.5,5.00,0.00,30.3,26.9,00.0,39.0,32.0,16.6,0000.0,0001.77,0003.27,0001.52
2022-09-17 04:44:00,,0824.5,4.99,0.00,30.2,27.1,00.0,39.0,31.8,16.7,0000.0,0001.77,0002.31,0001.52
2022-09-17 04:45:00,,0824.4,4.99,0.00,30.1,27.4,00.0,38.9,31.7,16.7,0000.0,0001.74,0002.17,0001.53
2022-09-17 04:46:00,,0824.5,5.00,0.00,30.1,27.7,00.0,38.9,31.7,16.8,0000.0,0001.73,0002.05,0001.55
2022-09-17 04:47:00,,0824.4,5.00,0.00,30.1,27.9,00.0,38.9,31.8,16.9,0000.0,0001.76,0002.08,0001.57
2022-09-17 04:48:00,,0824.4,5.00,0.00,30.1,28.1,00.0,38.9,31.8,17.0,0000.0,0001.78,0002.55,0001.59
2022-09-17 04:49:00,,0824.4,5.01,0.00,30.1,28.2,00.0,38.9,31.8,17.1,0000.0,0001.83,0002.88,0001.62
2022-09-17 04:50:00,,0824.4,4.99,0.00,30.1,28.3,00.0,38.9,31.8,17.2,0000.0,0001.87,0003.84,0001.65
2022-09-17 04:51:00,,0824.4,5.01,0.00,30.1,28.4,00.0,38.8,31.9,17.3,0000.0,0001.86,0003.87,0001.67
2022-09-17 04:52:00,,0824.5,4.99,0.00,30.1,28.5,00.0,38.8,31.9,17.2,0000.0,0001.90,0003.93,0001.69
2022-09-17 04:53:00,,0824.5,5.01,0.00,30.1,28.6,00.0,38.9,31.9,17.0,0000.0,0001.94,0003.98,0001.72
2022-09-17 04:54:00,,0824.4,4.99,0.00,30.1,28.7,00.0,38.9,31.9,17.0,0000.0,0001.96,0004.03,0001.73
2022-09-17 04:55:00,,0824.4,5.01,0.00,30.1,28.7,00.0,38.9,31.9,17.0,0000.0,0001.99,0004.07,0001.74
2022-09-17 04:56:00,,0824.4,5.01,0.00,30.1,28.8,00.0,38.9,32.0,17.1,0000.0,0002.02,0004.14,0001.75
2022-09-17 04:57:00,,0824.4,4.99,0.00,30.1,28.8,00.0,38.9,32.0,17.1,0000.0,0002.04,0004.17,0001.77
2022-09-17 04:58:00,,0824.4,5.00,0.00,30.2,28.8,00.0,38.9,32.0,17.1,0000.0,0002.04,0004.20,0001.77
2022-09-17 04:59:00,,0824.4,5.00,0.00,30.2,28.9,00.0,38.9,32.0,17.1,0000.0,0002.05,0003.85,0001.79
